TimeEDT,TemperatureF,Dew PointF,Humidity,Sea Level PressureIn,VisibilityMPH,Wind Direction,Wind SpeedMPH,Gust SpeedMPH,PrecipitationIn,Events,Conditions,WindDirDegrees,DateUTC
12:15 AM,66.9,61.0,81,29.84,8.0,West,9.2,-,N/A,,Mostly Cloudy,280,2014-08-13 04:15:00
12:23 AM,66.9,62.1,84,29.84,6.0,NW,16.1,20.7,0.01,Rain,Light Rain,310,2014-08-13 04:23:00
12:28 AM,66.9,62.1,84,29.85,3.0,NNW,11.5,20.7,0.07,Rain,Heavy Rain,330,2014-08-13 04:28:00
12:31 AM,66.9,62.1,84,29.85,2.5,NNW,12.7,20.7,0.09,Rain,Heavy Rain,340,2014-08-13 04:31:00
12:41 AM,66.9,62.1,84,29.85,6.0,WNW,4.6,-,0.11,Rain,Light Rain,300,2014-08-13 04:41:00
12:51 AM,66.2,62.6,88,29.85,4.0,West,3.5,-,0.13,Rain,Rain,280,2014-08-13 04:51:00
12:53 AM,66.9,62.1,84,29.83,4.0,Variable,3.5,-,0.13,Rain,Light Rain,0,2014-08-13 04:53:00
1:13 AM,66.9,62.1,84,29.85,5.0,West,4.6,-,0.02,Rain,Light Rain,280,2014-08-13 05:13:00
1:20 AM,66.9,62.1,84,29.85,4.0,West,5.8,-,0.04,Rain,Light Rain,270,2014-08-13 05:20:00
1:34 AM,66.9,62.1,84,29.85,5.0,WNW,6.9,-,0.05,Rain,Light Rain,290,2014-08-13 05:34:00
1:53 AM,66.9,63.0,87,29.84,5.0,NW,4.6,-,0.07,Rain,Light Rain,320,2014-08-13 05:53:00
2:12 AM,66.9,62.1,84,29.86,10.0,NW,5.8,-,0.00,,Overcast,320,2014-08-13 06:12:00
2:53 AM,66.9,61.0,81,29.85,10.0,NW,6.9,-,0.01,,Overcast,310,2014-08-13 06:53:00
3:34 AM,66.0,61.0,84,29.87,10.0,West,8.1,-,N/A,,Overcast,280,2014-08-13 07:34:00
3:53 AM,64.9,60.1,84,29.86,10.0,West,8.1,-,N/A,,Overcast,280,2014-08-13 07:53:00
4:09 AM,64.9,59.0,81,29.87,10.0,West,6.9,-,N/A,,Overcast,280,2014-08-13 08:09:00
4:20 AM,64.0,59.0,84,29.87,10.0,West,10.4,-,N/A,,Overcast,280,2014-08-13 08:20:00
4:53 AM,64.0,59.0,84,29.86,10.0,WNW,10.4,-,N/A,,Overcast,290,2014-08-13 08:53:00
5:25 AM,64.0,57.9,80,29.88,9.0,WNW,8.1,-,N/A,,Overcast,290,2014-08-13 09:25:00
5:53 AM,64.0,57.9,80,29.87,8.0,West,10.4,-,N/A,,Overcast,280,2014-08-13 09:53:00
6:06 AM,64.0,57.9,80,29.88,7.0,West,6.9,-,N/A,,Overcast,280,2014-08-13 10:06:00
6:23 AM,63.0,57.9,84,29.89,7.0,West,9.2,-,N/A,,Overcast,270,2014-08-13 10:23:00
6:53 AM,63.0,57.0,81,29.89,8.0,West,10.4,-,N/A,,Overcast,280,2014-08-13 10:53:00
9:53 AM,66.9,55.9,68,29.94,10.0,NNW,12.7,18.4,N/A,,Mostly Cloudy,330,2014-08-13 13:53:00
11:11 AM,69.1,55.9,63,29.97,10.0,NW,15.0,26.5,N/A,,Scattered Clouds,320,2014-08-13 15:11:00
11:53 AM,70.0,55.0,59,29.96,10.0,NNW,15.0,24.2,N/A,,Clear,330,2014-08-13 15:53:00
12:21 PM,71.1,55.0,57,29.98,10.0,NW,15.0,26.5,N/A,,Partly Cloudy,320,2014-08-13 16:21:00
12:53 PM,72.0,54.0,53,29.97,10.0,NW,16.1,25.3,N/A,,Partly Cloudy,320,2014-08-13 16:53:00
1:53 PM,73.0,53.1,49,29.96,10.0,WNW,16.1,21.9,N/A,,Partly Cloudy,300,2014-08-13 17:53:00
2:53 PM,73.9,52.0,46,29.95,10.0,NW,17.3,23.0,N/A,,Clear,310,2014-08-13 18:53:00
3:53 PM,75.0,52.0,44,29.95,10.0,NW,13.8,23.0,N/A,,Clear,320,2014-08-13 19:53:00
4:53 PM,75.0,53.1,46,29.96,10.0,NW,15.0,26.5,N/A,,Clear,320,2014-08-13 20:53:00
5:53 PM,75.0,54.0,48,29.96,10.0,NNW,8.1,20.7,N/A,,Clear,330,2014-08-13 21:53:00
6:53 PM,75.0,54.0,48,29.96,10.0,NW,10.4,-,N/A,,Clear,310,2014-08-13 22:53:00
7:53 PM,72.0,55.0,55,29.96,10.0,NNW,5.8,-,N/A,,Clear,340,2014-08-13 23:53:00
8:53 PM,66.9,57.0,70,29.96,10.0,ENE,3.5,-,N/A,,Clear,60,2014-08-14 00:53:00
9:53 PM,66.9,55.9,68,29.96,10.0,Calm,Calm,-,N/A,,Mostly Cloudy,0,2014-08-14 01:53:00
10:53 PM,63.0,55.9,78,29.96,10.0,Calm,Calm,-,N/A,,Partly Cloudy,0,2014-08-14 02:53:00